www.pogodaiklimat.ru
ПОГОДА в Уиллоуби
Время
и дата
23:35 07.12
23:55 07.12
00:15 08.12
00:35 08.12
00:55 08.12
01:15 08.12
01:35 08.12
01:55 08.12
02:15 08.12
02:35 08.12
02:55 08.12
03:15 08.12
03:35 08.12
03:55 08.12
04:15 08.12
04:35 08.12
04:55 08.12
05:15 08.12
05:35 08.12
05:55 08.12
06:15 08.12
06:35 08.12
06:55 08.12
07:15 08.12
07:35 08.12
07:55 08.12
08:15 08.12
08:35 08.12
08:55 08.12
09:15 08.12
09:35 08.12
09:55 08.12
10:15 08.12
10:35 08.12
10:55 08.12
11:15 08.12
11:35 08.12
11:55 08.12
12:15 08.12
12:35 08.12
12:55 08.12
13:15 08.12
13:35 08.12
13:55 08.12
14:15 08.12
14:35 08.12
14:55 08.12
15:15 08.12
Ветер
(напр.,м/с)
Видим. Явления Облачность Т
(С)
Тd
(С)
f
(%)
Тe
(С)
Тes
(С)
Комфортность P
(гПа)
Po
(гПа)
Тmin
(С)
Tmax
(С)
R
(мм)
R24
(мм)
S
(см)
З 2 5 км 10/10 300 м +6.0 +4.8 92 +3 +3 1004.0
З 2 5 км 10/10 180 м +6.0 +4.8 92 +3 +3 1004.0
З 2 6 км 10/10 240 м +6.0 +4.7 91 +3 +3 1004.0
ЮЗ 2 5 км 10/10 180 м +5.8 +4.6 92 +3 +3 1004.0
З 2 5 км 10/10 180 м +5.8 +4.6 92 +3 +3 1004.0 +5.7 +6.2
З 3 5 км 10/10 180 м +5.7 +4.5 92 +2 +2 1004.0
З 2 4 км 10/10 180 м +5.7 +4.5 92 +3 +3 1004.0
З 2 4 км 10/10 180 м +5.7 +4.5 92 +3 +3 1004.0
С 2 4 км 10/10 180 м +5.7 +4.5 92 +3 +3 1004.0
штиль 0 3 км 10/10 180 м +5.6 +4.5 93 +5 +5 1004.4
штиль 0 4 км 10/10 330 м +5.6 +4.5 93 +5 +5 1004.4
штиль 0 5 км 10/10 330 м +5.5 +4.3 92 +4 +4 1004.4
штиль 0 5 км 10/10 90 м +5.3 +4.2 93 +4 +4 1004.4
штиль 0 4 км 10/10 270 м +5.3 +4.1 92 +4 +4 1004.0
штиль 0 3 км 10/10 270 м +5.3 +4.1 92 +4 +4 1004.0
штиль 0 2 км 10/10 1050 м +5.0 +3.9 93 +4 +4 1004.0
штиль 0 400 м 10/10 180 м +4.0 +2.8 92 +3 +3 1004.0
штиль 0 400 м 10/10 180 м +4.2 +3.1 93 +3 +3 1004.4
штиль 0 <100 м 10/10 180 м +3.3 +2.1 92 +2 +2 1004.0
штиль 0 400 м 10/10 180 м +4.2 +2.9 91 +3 +3 1004.4
штиль 0 3 км 10/10 180 м +4.4 +3.2 92 +3 +3 1004.4
штиль 0 2 км 10/10 120 м +4.1 +2.9 92 +3 +3 1004.4
штиль 0 3 км 10/10 120 м +4.6 +3.5 93 +3 +3 1004.4 +3.2 +5.8
штиль 0 2 км 10/10 120 м +4.5 +3.4 93 +3 +3 1004.7
штиль 0 3 км 10/10 270 м +4.6 +3.5 93 +3 +3 1004.4
СВ 2 2 км 10/10 300 м +4.8 +3.6 92 +2 +2 1004.4
штиль 0 3 км 10/10 630 м +5.0 +3.8 92 +4 +4 1004.4
штиль 0 3 км 10/10 690 м +5.0 +3.9 93 +4 +4 1004.7
штиль 0 3 км 10/10 690 м +5.1 +4.0 93 +4 +4 1004.7
СВ 3 8 км 10/10 420 м +5.0 +3.8 92 +1 +1 1005.4
СВ 3 8 км 10/10 360 м +4.7 +3.6 93 +1 +1 1004.7
С 2 8 км 10/10 360 м +4.7 +3.5 92 +2 +2 1005.0
СВ 2 8 км 10/10 360 м +4.8 +3.6 92 +2 +2 1005.4
С 2 8 км 10/10 300 м +4.8 +3.6 92 +2 +2 1005.4
СВ 4 6 км 10/10 300 м +4.8 +3.6 92 0 0 1005.4
СВ 4 11 км 10/10 300 м +4.8 +3.6 92 0 0 1005.0
СВ 2 11 км 10/10 360 м +5.0 +3.5 90 +2 +2 1004.7
СВ 4 11 км 10/10 360 м +5.0 +3.2 88 +1 +1 1004.7
СВ 3 11 км 10/10 360 м +5.3 +3.3 87 +2 +2 1004.4
СВ 4 11 км 10/10 360 м +5.0 +3.0 87 +1 +1 1003.7
СВ 4 16 км 10/10 420 м +5.1 +2.5 83 +1 +1 1003.7 +4.5 +5.3
СВ 3 16 км 10/10 450 м +5.2 +2.1 80 +2 +2 1003.7
В 3 16 км 10/10 450 м +5.3 +2.1 80 +2 +2 1003.4
СВ 3 16 км 10/10 450 м +5.5 +1.6 76 +2 +2 1003.7
СВ 3 16 км 10/10 450 м +5.4 +2.0 79 +2 +2 1003.7
СВ 4 16 км 10/10 720 м +5.2 +2.4 82 +1 +1 1003.4
СВ 5 16 км 10/10 660 м +5.3 +2.2 80 +1 +1 1003.4
СВ 3 16 км 10/10 720 м +5.2 +2.0 80 +2 +2 1003.7
Местоположение метеостанции Willoughby: широта 41.6844 долгота -81.3895 высота над уровнем моря 190 м.
В архиве по умолчанию представлена погода в Уиллоуби за последние 1-2 суток. Обновление информации о фактической погоде в базе происходит ежечасно! Архивные данные за месяц целиком и за предыдущие месяцы Вы можете получить, выбрав интересующий диапазон дат из раскрывающегося списка и нажав кнопку "Ввод!".
Внимание! Архив погоды МЕТАР в базе сайта по станциям, не включенным в климатический монитор, хранится не более 60 дней. Нет смысла пытаться выбрать более раннюю дату.
*Определитесь, кто Вы:
Внимание! Время в таблицах - местное (без учета летнего времени). Для получения всемирного времени необходимо вычесть поправку, которая равна -5 ч.
Смотрите также архив погоды в соседних городах и на ближайших метеорологических станциях:
Партнеры нашего сайта:      
Пояснения к столбцам:
  • Ветер - указаны скорость ветра в м/с - средняя за 10 мин, порывы в срок и между сроками (в фигурных скобках) и направление, откуда дует ветер: С - северный,
  • СВ - северо-восточный, В - восточный, ЮВ - юго-восточный, Ю - южный, ЮЗ - юго-западный, З - западный, СЗ - северо-западный.
  • Видимость - горизонтальная дальность видимости в метрах или километрах. При видимости от 1 до 10 км при отсутствии осадков обычно наблюдается дымка, при ухудшении видимости до 1 км и менее - туман. В сухую погоду видимость может ухудшаться дымом, пылью или мглою.
  • Явления - указаны атмосферные явления, наблюдавшиеся в срок или в последний час перед сроком; фигурными скобками обозначены явления, наблюдавшиеся между сроками (за 1-3 часа до срока); квадратными скобками обозначены град или гололедные отложения с указанием их диаметра в мм.
  • Облачность - указаны через наклонную черту общая и нижняя облачность в баллах и высота нижней границы облаков в метрах; квадратными скобками обозначены формы облаков: Ci - перистые, Cs - перисто-слоистые, Cc - перисто-кучевые, Ac - высококучевые, As - высокослоистые, Sc - слоисто-кучевые, Ns - слоисто-дождевые, Cu - кучевые, Cb - кучево-дождевые. Подробнее классификацию облаков см. в Атласе облаков (PDF).
  • T - Температура воздуха - температура, измеренная на высоте 2 м над землей.
  • Td - Температура точки росы - температура, при понижении до которой содержащийся в воздухе водяной пар достигнет насыщения.
  • f - Относительная влажность воздуха - влажноcть воздуха, измеренная на высоте 2 м над землей.
  • Te - Эффективная температура - температура, которую ощущает одетый по сезону человек в тени. Характеристика душности погоды. При расчете учитывается влияние влажности воздуха и скорости ветра на теплоощущения человека.
  • Tes - Эффективная температура на солнце - температура, которую ощущает человек, с поправкой на солнечный нагрев. Характеристика знойности погоды. Зависит от высоты солнца над горизонтом, облачности и скорости ветра. Ночью, в пасмурную погоду, а также при ветре 12 м/с и более поправка равна нулю.
  • P - Атмосферное давление - приведенное к уровню моря атмосферное давление.
  • Po - Атмосферное давление - измеренное на уровне метеостанции атмосферное давление.
  • Tmin - Минимальная температура - минимум температуры воздуха на высоте 2 м над землей.
  • Tmax - Максимальная температура - максимум температуры воздуха на высоте 2 м над землей.
  • R - Количество осадков - Количество выпавших осадков за период времени, мм. При наведении курсора мыши на число - период времени, за который выпало указанное количество осадков.
  • R24 - Количество осадков - Количество выпавших осадков за 24 часа, мм.
  • S - Снежный покров - Высота снежного покрова, см. При наведении курсора мыши на число - состояние снежного покрова и степень покрытия местности в баллах.